Regional Weather Roundup
Issued by NWS State College, PA

Home | Current Version | Previous Version | Graphics & Text | Print | Product List | Glossary On
Versions: 1 2 3 4 5 6 7 8 9 10 11 12 13 14 15 16 17 18 19 20 21 22 23 24 25 26 27 28 29 30 31 32 33 34 35 36 37 38 39 40 41 42 43 44 45 46 47 48 49 50
000
ASUS41 KCTP 242110
RWRCTP

REGIONAL WEATHER ROUNDUP
NATIONAL WEATHER SERVICE STATE COLLEGE PA
500 PM EDT TUE APR 24 2018

Note: "fair" indicates few or no clouds below 12,000 feet with no
significant weather and/or obstructions to visibility.

* = STATION THAT DOES NOT REPORT PRECIPITATION /E.G. RAIN...SNOW...ETC/
    THUNDER OR FOG.

PAZ002>004-007>009-013>016-020>023-029>032-242200-
WESTERN PENNSYLVANIA

CITY           SKY/WX    TMP DP  RH WIND       PRES   REMARKS
ERIE           LGT RAIN  54  48  80 E9        30.05F
MEADVILLE      LGT RAIN  51  49  92 VRB6      30.04F
FRANKLIN*      LGT RAIN  50  47  89 SE12G22   30.06F
NEW CASTLE     LGT RAIN  53  52  96 E9        30.03F
BEAVER COUNTY  DRIZZLE   52  50  93 E7        30.01F
BUTLER*        LGT RAIN  51  49  92 E12       30.03F
PITTSBURGH INT LGT RAIN  53  50  89 E10       30.00F
PITTSBURGH     LGT RAIN  52  49  89 E10       30.00F
INDIANA*       PTSUNNY   52  50  93 SE8G14    30.09F FOG
LATROBE        LGT RAIN  52  48  87 E14G21    30.01F
WASHINGTON CO* LGT RAIN  52  50  93 E7        30.02S
$$

PAZ004>006-010>012-017>019-024>028-033>037-041-042-045-046-049>053-242200-
CENTRAL PENNSYLVANIA

CITY           SKY/WX    TMP DP  RH WIND       PRES   REMARKS
BRADFORD       LGT RAIN  51  44  77 SE10G18   30.10F
DUBOIS         LGT RAIN  50  48  93 E9        30.07F FOG
CLEARFIELD     LGT RAIN  52  49  89 NE5       30.09F
JOHNSTOWN      LGT RAIN  49  46  90 E8G17     30.05F FOG
ALTOONA        LGT RAIN  54  48  80 SE9       30.09F
STATE COLLEGE  LGT RAIN  57  41  54 SE12G20   30.11F
WILLIAMSPORT   PTSUNNY   63  37  38 SE14G20   30.12F
SELINSGROVE    FAIR      61  42  49 SE12      30.14F
FT INDIANTOWN  CLOUDY    62  42  47 SE9       30.15F
CAPITAL CITY   PTSUNNY   64  45  49 SE20G29   30.13F
HARRISBURG     CLOUDY    62  45  53 SE20G26   30.13F
YORK           FAIR      60  46  59 E17G24    30.13F
$$

PAZ038>040-043-044-047-048-054-055-060>062-067>071-242200-
EASTERN PENNSYLVANIA

CITY           SKY/WX    TMP DP  RH WIND       PRES   REMARKS
SCRANTON       FAIR      62  36  37 S9G20     30.17F
MOUNT POCONO   FAIR      56  36  47 SE8G21    30.19F
ALLENTOWN      FAIR      64  41  42 SE12G22   30.19F
QUAKERTOWN*    PTCLDY    63  43  48 SE12      30.20F
READING        PTSUNNY   63  44  50 SE13G26   30.16F
LANCASTER      PTSUNNY   61  46  57 SE13G22   30.15F
COATESVILLE    MOCLDY    61  45  55 SE13G18   30.18F
POTTSTOWN      PTSUNNY   61  43  51 SE9G17    30.20F
BLUE BELL      PTSUNNY   61  43  51 SE13G18   30.21F
DOYLESTOWN     PTSUNNY   61  43  51 VRB6G18   30.20F
WILLOW GROVE   NOT AVBL
NORTH PHILA    PTSUNNY   64  44  48 SE16      30.22F
PHILADELPHIA   CLOUDY    62  45  53 SE13G22   30.20F
$$




USA.gov is the U.S. government's official web portal to all federal, state and local government web resources and services.